Stations météo

réclame
Mon MeteoGroup
Weißenburg-Emetzheim, Allemagne (10761): Température de l'air & dewpoint: 15.06.2018 12:00:00 - 21.06.2018 12:00:00 (CEST)Weißenburg-Emetzheim, Allemagne (10761): Température de l'air 5cm & Température de l'air -5cm: 15.06.2018 12:00:00 - 21.06.2018 12:00:00 (CEST)Weißenburg-Emetzheim, Allemagne (10761): Température de l'air -20cm & Température de l'air -100cm: 15.06.2018 12:00:00 - 21.06.2018 12:00:00 (CEST)Weißenburg-Emetzheim, Allemagne (10761): Vitesse du vent & gusts: 15.06.2018 12:00:00 - 21.06.2018 12:00:00 (CEST)Weißenburg-Emetzheim, Allemagne (10761): Direction du vent: 15.06.2018 12:00:00 - 21.06.2018 12:00:00 (CEST)Weißenburg-Emetzheim, Allemagne (10761): reduced air pressure: 15.06.2018 12:00:00 - 21.06.2018 12:00:00 (CEST)Weißenburg-Emetzheim, Allemagne (10761): visibility: 15.06.2018 12:00:00 - 21.06.2018 12:00:00 (CEST)Weißenburg-Emetzheim, Allemagne (10761): Ensoleillement: 15.06.2018 12:00:00 - 21.06.2018 12:00:00 (CEST)Weißenburg-Emetzheim, Allemagne (10761): Quantités de précipitations: 15.06.2018 12:00:00 - 21.06.2018 12:00:00 (CEST)
Date & Time tt [°C] td [°C] tt 5cm [°C] tt -5cm [°C] tt -20cm [°C] tt -100cm [°C] ff [km/h] ff [knt] fx [km/h] fx [knt] dd ppp [hPa] vv [km] sd [min] rr [mm]
21.06.2018 12:00:00 25,8 15,4 31,7 29,9 22,9 17,6 23 12 37 20 W 1013,2 34 37 0,0
21.06.2018 11:00:00 25,7 17,4 32,8 29,1 22,6 17,6 18 10 34 18 W 1013,0 26 60 0,0
21.06.2018 10:00:00 24,8 15,5 32,2 26,6 22,5 17,6 11 6 22 12 WSW 1013,3 56 51 0,0
21.06.2018 09:00:00 23,4 16,0 29,3 23,8 22,5 17,6 9 5 15 8 SW 1013,9 31 36 0,0
21.06.2018 08:00:00 19,9 15,5 22,3 21,8 22,7 17,6 12 7 17 9 S 1014,8 23 25 0,0
21.06.2018 07:00:00 17,7 14,3 18,7 20,8 22,9 17,6 12 7 16 9 S 1015,4 25 48 0,0
21.06.2018 06:00:00 16,3 14,0 16,4 20,0 23,2 17,6 11 6 19 10 S 1015,9 15 16 0,0
21.06.2018 05:00:00 16,5 14,0 15,3 20,3 23,6 17,6 14 8 19 10 S 1016,0 26 0 0,0
21.06.2018 04:00:00 15,1 14,1 13,8 20,7 23,9 17,6 6 4 10 6 S 1017,1 18 0 0,0
21.06.2018 03:00:00 15,4 14,4 14,3 21,4 24,3 17,6 8 4 10 5 SSW 1017,2 17 0 0,0
21.06.2018 02:00:00 16,1 14,8 15,1 22,1 24,6 17,6 9 5 10 6 SSW 1017,5 19 0 0,0
21.06.2018 01:00:00 17,0 15,2 15,2 22,9 25,0 17,5 6 3 11 6 S 1017,8 23 0 0,0
21.06.2018 00:00:00 17,6 15,7 16,3 23,9 25,3 17,6 6 3 12 7 SSW 1018,3 22 0 0,0
20.06.2018 23:00:00 19,3 15,9 16,9 25,1 25,6 17,5 7 4 10 5 SSW 1018,0 29 0 0,0
20.06.2018 22:00:00 21,7 16,2 17,8 26,8 25,8 17,5 5 3 9 5 S 1017,6 23 13 0,0
20.06.2018 21:00:00 23,6 17,1 22,7 29,3 25,8 17,5 5 3 8 4 SW 1017,1 34 60 0,0
20.06.2018 20:00:00 26,4 15,9 28,0 31,8 25,6 17,5 5 3 11 6 W 1016,7 49 60 0,0
20.06.2018 19:00:00 27,2 14,4 30,2 33,9 25,2 17,5 5 3 11 6 WNW 1017,0 50 58 0,0
20.06.2018 18:00:00 28,1 14,6 32,3 35,7 24,7 17,5 4 2 13 7 S 1017,0 67 60 0,0
20.06.2018 17:00:00 27,5 14,2 33,2 36,7 24,1 17,5 7 4 14 7 E 1017,8 42 60 0,0
20.06.2018 16:00:00 27,6 14,6 36,1 36,2 23,4 17,5 7 4 19 10 SW 1018,3 38 58 0,0
20.06.2018 15:00:00 26,5 13,7 36,4 35,3 22,8 17,5 6 3 12 7 SW 1018,9 26 60 0,0
20.06.2018 14:00:00 26,0 14,0 33,1 30,8 22,4 17,5 7 4 10 5 E 1019,5 54 25 0,0
20.06.2018 13:00:00 24,9 14,4 31,0 29,6 21,9 17,5 4 2 13 7 NNW 1020,3 64 20 0,0
20.06.2018 12:00:00 24,9 12,5 31,9 29,2 21,4 17,5 9 5 23 13 SE 1020,6 70 40 0,0
20.06.2018 11:00:00 24,8 13,0 33,0 26,4 21,1 17,5 7 4 12 6 SSW 1020,9 39 23 0,0
20.06.2018 10:00:00 23,7 14,3 29,7 25,9 20,9 17,5 4 2 8 4 SSE 1021,1 35 60 0,0
20.06.2018 09:00:00 20,3 14,8 27,9 22,7 20,9 17,5 0 0 8 4 N 1022,0 37 59 0,0
20.06.2018 08:00:00 15,4 14,2 18,8 19,6 21,0 17,5 4 2 5 3 SSW 1023,1 14 6 0,0
20.06.2018 07:00:00 13,9 13,5 14,7 18,6 21,3 17,5 3 2 7 4 SSE 1023,6 8 34 0,0
20.06.2018 06:00:00 12,4 12,3 11,6 17,8 21,5 17,5 5 3 6 3 SSW 1024,0 13 0 0,0
20.06.2018 05:00:00 12,8 12,7 10,5 18,2 21,8 17,5 3 2 7 4 SSW 1023,8 15 0 0,0
20.06.2018 04:00:00 13,4 13,3 10,9 18,7 22,1 17,5 5 3 6 4 SSW 1023,9 14 0 0,0
20.06.2018 03:00:00 14,3 14,0 11,4 19,2 22,4 17,5 3 1 6 4 WSW 1023,9 15 0 0,0
20.06.2018 02:00:00 14,5 13,7 12,6 19,9 22,7 17,5 6 3 8 4 SSW 1024,1 21 0 0,0
20.06.2018 01:00:00 15,4 14,1 13,3 20,6 23,0 17,5 6 3 8 4 SSW 1024,1 33 0 0,0
20.06.2018 00:00:00 17,2 14,7 13,5 21,5 23,3 17,5 4 2 5 3 SW 1023,6 42 0 0,0
19.06.2018 23:00:00 18,1 15,0 14,7 22,7 23,5 17,5 4 2 9 5 S 1023,4 58 0 0,0
19.06.2018 22:00:00 20,1 15,1 18,0 24,3 23,6 17,5 5 3 6 4 NNW 1023,1 70 0 0,0
19.06.2018 21:00:00 21,1 15,4 20,9 25,6 23,5 17,4 4 2 12 7 NNW 1022,5 70 0 0,0
19.06.2018 20:00:00 22,6 14,2 23,7 27,9 23,4 17,4 9 5 19 11 WNW 1022,3 70 53 0,0
19.06.2018 19:00:00 23,8 14,7 26,1 29,0 23,1 17,4 9 5 20 11 NW 1022,0 70 54 0,0
19.06.2018 18:00:00 23,7 13,7 27,8 29,9 22,8 17,4 9 5 21 12 NW 1022,2 38 57 0,0
19.06.2018 17:00:00 23,6 14,9 27,7 29,5 22,4 17,4 13 7 21 11 NW 1022,5 70 29 0,0
19.06.2018 16:00:00 22,8 13,7 27,6 29,3 22,1 17,4 10 6 17 9 W 1023,0 70 25 0,0
19.06.2018 15:00:00 22,4 15,0 28,7 28,5 21,7 17,4 8 4 22 12 WNW 1023,2 59 23 0,0
19.06.2018 14:00:00 21,9 14,7 29,0 27,0 21,4 17,4 12 6 23 13 W 1023,4 57 17 0,0
19.06.2018 13:00:00 20,6 13,5 26,1 24,8 21,2 17,4 10 5 17 9 WSW 1023,9 55 0 0,0
19.06.2018 12:00:00 19,3 14,2 21,8 23,9 21,0 17,4 12 7 21 12 WSW 1024,2 70 2 0,0
19.06.2018 11:00:00 19,2 13,1 21,8 23,4 20,8 17,4 10 6 20 11 WNW 1024,2 67 8 0,0
19.06.2018 10:00:00 19,0 14,1 23,2 22,5 20,7 17,4 10 5 21 11 W 1024,3 44 15 0,0
19.06.2018 09:00:00 18,3 13,4 23,3 22,0 20,7 17,4 15 8 21 11 WNW 1024,3 29 59 0,0
19.06.2018 08:00:00 17,2 12,9 21,4 19,7 20,9 17,4 6 4 10 6 SSW 1024,2 28 60 0,0
19.06.2018 07:00:00 14,5 12,0 17,0 18,0 21,1 17,4 6 3 10 5 S 1024,5 26 46 0,0
19.06.2018 06:00:00 12,3 10,9 12,6 17,5 21,4 17,4 8 4 10 5 SSW 1024,7 17 18 0,0
19.06.2018 05:00:00 11,8 11,0 11,5 17,8 21,7 17,4 8 4 11 6 SSW 1024,6 21 0 0,0
19.06.2018 04:00:00 11,8 11,0 10,8 18,3 22,0 17,4 6 3 9 5 SSW 1024,4 24 0 0,0
19.06.2018 03:00:00 11,5 10,7 10,1 18,5 22,4 17,4 6 3 10 6 S 1024,4 22 0 0,0
19.06.2018 02:00:00 12,9 11,2 10,2 19,1 22,7 17,4 6 3 9 5 SW 1023,9 33 0 0,0
19.06.2018 01:00:00 13,3 11,4 10,9 19,8 23,1 17,4 7 4 10 5 S 1024,0 35 0 0,0
19.06.2018 00:00:00 14,6 11,5 10,9 20,7 23,4 17,4 5 3 7 4 S 1023,8 40 0 0,0
18.06.2018 23:00:00 15,6 11,8 12,5 21,8 23,7 17,4 7 4 10 5 WNW 1023,2 45 0 0,0
18.06.2018 22:00:00 17,6 11,7 13,6 23,1 23,9 17,3 8 4 9 5 WNW 1022,3 45 12 0,0
18.06.2018 21:00:00 19,3 11,4 17,3 25,1 24,0 17,3 6 4 13 7 WNW 1021,5 46 59 0,0
18.06.2018 20:00:00 20,8 11,0 21,1 27,0 24,0 17,3 10 5 23 12 NW 1021,1 61 60 0,0
18.06.2018 19:00:00 21,6 11,8 23,4 28,8 23,9 17,3 14 8 26 14 NW 1020,8 54 58 0,0
18.06.2018 18:00:00 22,1 11,7 25,7 29,3 23,6 17,3 12 6 27 14 WNW 1020,7 70 32 0,0
18.06.2018 17:00:00 22,0 11,2 26,0 30,2 23,2 17,3 12 6 28 15 WNW 1020,7 54 35 0,0
18.06.2018 16:00:00 21,2 9,9 25,9 32,2 22,7 17,3 9 5 22 12 W 1021,2 57 47 0,0
18.06.2018 15:00:00 21,2 10,0 28,2 32,0 22,2 17,3 14 8 24 13 W 1021,2 32 60 0,0
18.06.2018 14:00:00 21,0 11,1 28,2 30,8 21,7 17,3 16 8 33 18 WNW 1021,8 27 60 0,0
18.06.2018 13:00:00 20,0 10,3 29,0 28,0 21,3 17,3 13 7 26 14 W 1021,9 47 51 0,0
18.06.2018 12:00:00 18,8 10,3 26,4 26,4 21,0 17,3 13 7 22 12 WSW 1022,2 46 48 0,0
18.06.2018 11:00:00 17,8 10,5 26,4 24,6 20,8 17,3 12 7 21 11 W 1022,4 43 26 0,0
18.06.2018 10:00:00 16,6 11,0 21,9 22,0 20,8 17,3 7 4 13 7 NNW 1022,6 51 3 0,0
18.06.2018 09:00:00 15,6 11,3 18,9 20,0 20,9 17,3 7 4 15 8 WNW 1022,4 50 0 0,0
18.06.2018 08:00:00 14,8 11,2 15,4 19,2 21,0 17,3 13 7 19 10 NW 1022,2 50 0 0,0
18.06.2018 07:00:00 14,7 11,9 15,4 19,0 21,2 17,3 4 2 7 4 N 1021,9 39 0 0,0
18.06.2018 06:00:00 14,3 11,7 14,2 18,8 21,5 17,3 6 3 9 5 NNW 1021,9 41 0 0,0
18.06.2018 05:00:00 14,6 11,7 14,0 19,0 21,7 17,3 5 3 11 6 NW 1021,5 38 0 0,0
18.06.2018 04:00:00 14,9 11,9 13,5 19,2 22,0 17,3 5 3 13 7 WNW 1021,1 41 0 0,0
18.06.2018 03:00:00 14,9 12,3 14,0 19,5 22,2 17,3 7 4 10 5 W 1021,2 38 0 0,0
18.06.2018 02:00:00 15,0 12,7 13,9 20,1 22,5 17,3 5 3 9 5 S 1021,0 31 0 0,0
18.06.2018 01:00:00 15,7 12,7 14,6 20,5 22,8 17,3 3 2 9 5 N 1020,3 34 0 0,0
18.06.2018 00:00:00 16,0 12,5 14,6 21,2 23,1 17,2 7 4 13 7 W 1020,3 43 0 0,0
17.06.2018 23:00:00 16,8 12,2 15,9 22,0 23,3 17,2 10 5 13 7 WNW 1019,7 46 0 0,0
17.06.2018 22:00:00 17,3 12,6 16,6 22,9 23,5 17,2 9 5 12 7 WNW 1019,2 46 0 0,0
17.06.2018 21:00:00 18,1 12,6 17,5 24,2 23,7 17,2 9 5 17 9 NW 1018,3 54 1 0,0
17.06.2018 20:00:00 19,3 12,1 19,2 25,4 23,7 17,2 11 6 26 14 NW 1017,6 68 13 0,0
17.06.2018 19:00:00 20,9 11,9 22,0 27,6 23,6 17,2 14 8 30 16 NW 1016,9 56 45 0,0
17.06.2018 18:00:00 21,1 11,8 22,9 29,0 23,3 17,2 19 10 29 16 WNW 1016,7 69 53 0,0
17.06.2018 17:00:00 21,8 12,2 24,3 30,4 22,9 17,2 16 9 27 14 NW 1016,4 37 38 0,0
17.06.2018 16:00:00 21,6 13,8 28,1 31,0 22,5 17,2 12 7 23 12 NW 1016,6 27 51 0,0
17.06.2018 15:00:00 21,0 13,5 28,3 30,3 22,1 17,2 10 5 28 15 NW 1017,2 37 60 0,0
17.06.2018 14:00:00 19,3 12,9 24,8 26,9 21,8 17,2 20 11 31 17 NW 1017,7 32 7 0,0
17.06.2018 13:00:00 20,0 14,8 25,4 27,8 21,4 17,2 22 12 36 20 WNW 1017,4 29 34 0,0
17.06.2018 12:00:00 21,1 14,1 29,3 27,3 21,1 17,2 14 7 24 13 WNW 1017,0 30 58 0,0
17.06.2018 11:00:00 20,1 13,4 25,9 24,3 20,9 17,2 20 11 29 16 WNW 1017,2 44 28 0,0
17.06.2018 10:00:00 19,0 14,4 22,3 22,6 20,8 17,2 13 7 21 11 NW 1017,2 30 5 0,0
17.06.2018 09:00:00 18,3 14,3 21,9 21,3 20,9 17,2 17 9 28 15 WNW 1017,0 20 25 0,0
17.06.2018 08:00:00 18,1 13,0 22,2 20,2 21,0 17,2 6 4 15 8 NW 1016,5 14 60 0,0
17.06.2018 07:00:00 15,6 13,0 17,5 18,9 21,2 17,2 6 3 10 5 SW 1016,3 15 42 0,0
17.06.2018 06:00:00 13,7 12,8 12,7 18,6 21,5 17,2 7 4 12 7 SW 1016,5 11 0 0,0
17.06.2018 05:00:00 14,1 13,2 14,0 19,1 21,8 17,2 8 4 13 7 SSW 1016,1 11 0 0,0
17.06.2018 04:00:00 14,3 13,2 14,2 19,2 22,1 17,2 8 5 13 7 SW 1016,1 13 0 0,0
17.06.2018 03:00:00 13,9 13,1 12,9 19,5 22,4 17,2 10 6 13 7 SSW 1016,0 10 0 0,0
17.06.2018 02:00:00 15,5 13,7 14,5 20,3 22,7 17,2 8 5 11 6 SW 1015,7 15 0 0,0
17.06.2018 01:00:00 16,4 14,0 13,7 21,2 22,9 17,2 6 3 8 4 S 1015,7 17 0 0,0
17.06.2018 00:00:00 17,7 14,9 17,2 22,3 23,2 17,2 5 3 7 4 S 1015,5 19 0 0,0
16.06.2018 23:00:00 17,9 15,2 17,6 23,0 23,4 17,2 5 3 7 4 S 1015,3 16 0 0,0
16.06.2018 22:00:00 20,1 13,7 18,3 24,0 23,5 17,2 0 0 4 2 N 1014,7 20 0 0,0
16.06.2018 21:00:00 20,7 15,5 20,8 25,2 23,6 17,2 4 2 10 6 SW 1014,0 29 0 0,0
16.06.2018 20:00:00 21,7 13,0 21,9 26,4 23,7 17,2 7 4 10 5 WNW 1013,7 37 1 0,0
16.06.2018 19:00:00 22,6 11,1 23,5 28,1 23,5 17,2 6 4 11 6 NW 1013,5 42 11 0,0
16.06.2018 18:00:00 23,5 9,5 27,7 30,5 23,1 17,2 6 4 12 6 W 1013,3 39 46 0,0
16.06.2018 17:00:00 24,1 10,9 28,5 31,8 22,7 17,2 9 5 16 9 SSW 1013,3 42 43 0,0
16.06.2018 16:00:00 24,4 9,5 30,6 31,8 22,3 17,2 9 5 16 9 E 1013,5 38 60 0,0
16.06.2018 15:00:00 24,1 9,5 29,4 29,0 21,9 17,2 4 2 8 5 ESE 1014,0 52 10 0,0
16.06.2018 14:00:00 22,5 9,3 27,2 29,8 21,3 17,2 3 2 12 6 W 1014,7 35 10 0,0
16.06.2018 13:00:00 22,5 9,0 26,9 32,9 20,6 17,2 9 5 17 9 SSE 1015,0 40 47 0,0
16.06.2018 12:00:00 21,4 11,1 26,2 28,2 20,0 17,3 4 2 13 7 WNW 1015,5 32 26 0,0
16.06.2018 11:00:00 21,5 11,3 29,4 28,1 19,4 17,3 4 2 11 6 NNW 1015,5 24 59 0,0
16.06.2018 10:00:00 20,1 11,0 26,0 24,7 19,1 17,3 4 2 8 4 ENE 1015,7 25 60 0,0
16.06.2018 09:00:00 18,5 11,7 23,2 20,8 19,1 17,3 3 2 5 3 NE 1016,2 14 60 0,0
16.06.2018 08:00:00 15,0 11,2 17,7 17,5 19,2 17,3 2 1 5 3 S 1016,8 15 60 0,0
16.06.2018 07:00:00 11,4 10,0 13,0 15,4 19,5 17,3 3 2 10 6 S 1017,3 9 60 0,0
16.06.2018 06:00:00 9,4 9,0 9,4 14,6 19,9 17,3 5 3 11 6 SSW 1017,5 8 6 0,0
16.06.2018 05:00:00 9,6 9,3 8,7 14,9 20,3 17,3 7 4 11 6 SSW 1017,4 12 0 0,0
16.06.2018 04:00:00 9,8 9,3 8,7 15,6 20,7 17,3 7 4 10 5 SW 1017,8 11 0 0,0
16.06.2018 03:00:00 10,4 9,7 9,0 16,3 21,1 17,3 6 3 7 4 SSW 1017,9 17 0 0,0
16.06.2018 02:00:00 10,6 9,8 9,6 17,1 21,6 17,4 8 4 10 5 SSW 1018,1 16 0 0,0
16.06.2018 01:00:00 11,8 10,4 10,0 18,0 22,0 17,4 5 3 13 7 S 1017,9 20 0 0,0
16.06.2018 00:00:00 12,9 10,8 10,9 19,1 22,4 17,4 7 4 11 6 SSW 1017,6 24 0 0,0
15.06.2018 23:00:00 14,7 11,2 11,4 20,4 22,8 17,4 5 3 7 4 SSW 1017,2 31 0 0,0
15.06.2018 22:00:00 16,8 10,8 12,9 22,2 23,1 17,4 6 3 8 4 S 1016,7 14 3 0,0
15.06.2018 21:00:00 19,4 10,2 17,3 24,9 23,1 17,4 4 2 6 3 SSW 1015,9 50 58 0,0
15.06.2018 20:00:00 20,4 10,5 21,4 27,3 23,0 17,4 4 2 10 6 SSE 1015,6 52 60 0,0
15.06.2018 19:00:00 21,3 7,7 23,0 30,7 22,5 17,4 9 5 16 9 NE 1015,2 43 60 0,0
15.06.2018 18:00:00 21,4 8,2 26,1 33,1 21,9 17,4 10 6 17 9 NNW 1015,4 37 58 0,0
15.06.2018 17:00:00 21,5 8,5 27,5 34,0 21,2 17,4 10 6 16 9 NNE 1015,6 28 51 0,0
15.06.2018 16:00:00 21,1 8,0 27,6 33,5 20,4 17,5 6 3 15 8 NE 1016,0 33 60 0,0
15.06.2018 15:00:00 20,1 7,7 25,6 30,2 19,7 17,5 6 3 16 9 WNW 1016,3 53 54 0,0
15.06.2018 14:00:00 19,6 8,4 25,5 29,6 18,9 17,5 8 4 17 9 N 1016,5 32 50 0,0
15.06.2018 13:00:00 19,5 9,1 26,6 29,5 18,2 17,5 10 5 17 9 N 1016,7 30 59 0,0
15.06.2018 12:00:00 19,4 6,4 25,8 25,7 17,6 17,5 5 3 13 7 ESE 1016,7 36 44 0,0

tt = Température de l'air
td = dewpoint
tt 5cm = Température de l'air 5cm
tt -5cm = Température de l'air -5cm
tt -20cm = Température de l'air -20cm
tt -100cm = Température de l'air -100cm
ff = Vitesse du vent
fx = gusts
dd = Direction du vent
ppp = reduced air pressure
vv = visibility
sd = Ensoleillement
rr = Quantités de précipitations

stations d'obs. à proximité